Wetbulb
61.19 55.25 55.78 54.52 48.25 46.43 43.30 44.34 45.66 46.13 47.35 50.32 50.99 50.18 51.01 51.19 52.24 48.30 62.01 67.99 70.03 71.01 71.66 71.72 70.24 70.86 71.27 72.53 72.34 71.91 72.84 73.92 73.89 73.51 73.36 73.22 73.00 73.13 73.31 73.05 72.69 72.87 73.39 73.11 72.92 73.44 72.45 71.86 71.65
57.64 54.64 53.91 49.74 45.18 41.72 43.60 45.16 45.60 48.10 49.57 50.84 50.61 50.25 50.06 50.15 56.92 60.78 63.45 69.08 70.82 70.98 71.40 71.68 70.30 70.70 71.36 72.32 71.95 71.76 72.49 73.30 73.51 73.43 73.29 73.05 73.10 72.98 73.33 73.09 72.38 72.47 72.82 72.84 72.49 72.42 71.98 71.36 70.82
55.94 54.72 51.85 46.77 42.65 40.44 42.92 45.68 47.63 49.11 49.80 49.97 49.67 51.43 51.69 52.64 60.97 62.94 65.67 69.36 70.73 70.58 71.01 71.28 70.11 70.58 71.51 72.12 72.35 71.65 71.89 72.37 72.82 72.85 72.97 73.02 72.98 72.98 72.79 72.11 71.80 71.91 72.37 72.49 72.10 71.61 71.25 70.48 69.69
54.47 53.87 48.00 44.04 41.15 43.97 44.98 47.86 47.69 47.92 48.78 49.79 50.58 49.42 52.47 57.04 62.40 66.02 66.79 69.37 70.62 70.70 71.02 69.97 69.53 70.20 71.11 71.95 72.43 71.42 71.39 71.30 71.47 72.18 72.54 72.90 72.17 71.56 70.99 70.10 70.59 70.72 70.95 72.22 71.49 70.93 70.08 68.97 68.24
50.47 49.59 44.22 41.39 40.76 43.35 46.06 47.80 48.11 47.43 47.79 48.79 49.88 49.30 51.93 57.26 64.09 65.89 67.48 69.37 69.95 70.64 70.96 71.07 68.93 69.90 71.05 71.97 72.26 71.60 70.60 70.63 71.01 71.76 71.63 71.80 70.40 69.49 69.84 69.06 69.85 70.13 70.21 70.43 70.33 69.83 68.87 68.06 67.38
48.27 46.94 41.13 38.83 40.36 42.60 45.68 47.83 47.68 47.98 48.56 49.39 48.76 49.74 52.64 60.44 63.46 65.88 68.27 69.51 70.50 70.40 70.59 71.48 69.49 69.93 70.26 71.13 71.15 70.74 70.64 70.10 70.52 70.72 70.72 70.43 69.63 69.32 68.82 68.99 69.18 69.14 69.74 69.30 68.76 68.73 68.22 67.41 66.71
45.26 44.14 40.54 39.83 39.66 41.20 44.41 48.25 47.50 47.85 47.45 49.01 51.65 49.46 53.84 58.65 62.63 65.81 68.19 69.61 69.94 70.79 70.50 70.85 70.71 70.36 69.42 69.29 69.42 69.09 69.47 69.62 69.10 69.61 68.92 69.29 68.38 67.95 68.25 68.41 68.60 68.40 68.34 68.48 67.77 67.84 67.33 66.83 65.92
46.93 45.90 39.79 40.37 40.36 41.16 46.39 47.60 48.99 48.21 47.55 50.98 53.88 50.38 50.20 55.87 63.09 65.02 66.25 68.65 69.20 69.79 70.63 69.78 69.54 69.61 71.43 71.23 68.41 68.39 68.21 68.41 68.54 68.49 67.93 67.08 67.06 67.45 67.76 67.91 68.07 68.29 68.12 67.86 67.89 67.22 66.66 65.95 64.77
47.32 42.43 39.04 40.66 40.66 42.70 46.62 46.41 48.60 49.88 48.40 49.32 51.00 52.37 54.59 59.76 63.02 63.74 64.60 66.10 67.93 68.10 69.16 69.59 68.18 68.62 69.21 70.58 70.38 68.86 68.55 68.05 67.60 67.86 66.97 66.12 68.46 68.54 67.67 66.27 66.90 67.72 67.53 67.38 66.73 66.19 65.62 64.55 63.67
46.29 41.48 40.64 44.99 44.94 44.22 46.15 46.49 47.59 47.25 47.28 48.80 50.03 52.79 54.52 60.87 61.77 62.13 63.06 64.07 65.38 67.04 67.74 68.21 67.64 68.06 68.46 68.81 69.81 71.09 69.68 71.22 70.95 70.10 69.05 69.25 67.84 67.63 67.03 66.22 66.47 67.36 66.83 66.50 65.72 65.26 64.86 64.15 64.78
45.36 41.63 43.13 44.94 46.37 46.49 45.57 45.75 48.02 47.35 46.37 49.20 50.00 52.18 53.49 56.99 59.74 61.09 62.72 64.03 64.73 66.20 67.26 67.69 66.70 67.46 67.47 67.91 68.92 70.18 69.85 69.78 69.32 70.07 69.68 68.37 66.31 66.30 67.28 67.23 67.96 68.31 66.82 65.89 65.37 64.97 65.77 65.57 64.74
42.40 44.39 45.85 45.90 46.93 46.62 45.63 47.69 47.25 47.60 49.15 51.92 52.21 52.16 50.41 52.57 56.73 60.05 61.73 63.20 63.80 64.09 65.96 67.06 67.62 66.53 66.71 67.20 67.89 68.54 69.21 68.35 67.62 67.36 67.97 66.44 65.68 66.41 66.02 66.98 67.45 67.34 66.99 65.85 65.36 64.77 64.78 65.00 64.47
42.59 44.75 45.62 46.68 47.21 46.78 47.66 46.85 46.94 46.68 49.59 50.93 50.47 50.34 51.63 51.98 53.59 59.34 61.97 63.01 63.29 63.18 64.79 66.39 67.30 67.41 66.37 65.64 66.03 66.35 66.77 67.11 67.29 66.12 65.26 65.41 65.64 65.86 63.85 64.48 65.41 65.87 65.28 65.67 64.11 63.09 62.28 63.09 62.55
46.02 45.06 45.88 46.87 46.70 47.35 46.06 46.87 47.13 48.05 49.42 48.99 49.71 51.23 51.63 52.34 54.50 58.26 60.57 61.66 62.72 63.24 64.02 65.69 66.63 67.10 67.07 66.53 65.84 64.89 64.80 65.34 65.94 65.75 64.78 65.57 65.73 65.46 64.50 63.79 64.30 64.48 64.27 64.91 62.76 61.45 60.43 61.87 62.24
44.76 41.66 43.34 43.58 45.16 45.20 46.64 43.49 43.33 48.99 49.38 47.61 48.75 50.50 51.43 52.23 53.35 55.34 58.63 59.07 60.08 62.29 63.62 64.24 65.44 66.73 65.85 65.69 65.39 63.80 63.80 64.57 65.97 66.79 65.22 64.70 64.37 63.50 64.17 63.18 63.31 63.43 63.19 61.72 60.94 60.88 60.73 61.28 61.84
40.15 40.51 37.29 42.64 43.30 44.85 45.20 40.41 46.99 47.05 46.18 44.80 45.67 47.09 48.82 51.04 51.82 53.78 55.61 56.47 58.03 60.16 61.30 63.67 64.05 65.18 65.53 65.14 64.57 62.30 62.69 63.26 63.66 64.26 64.81 64.47 64.46 63.85 63.21 62.83 62.70 62.33 61.32 60.53 58.78 60.68 59.62 60.49 60.83
37.14 35.02 36.34 38.63 44.31 44.20 43.81 41.10 45.70 45.39 43.07 43.14 44.67 46.07 47.18 49.06 51.28 52.54 53.54 54.60 55.65 57.10 57.94 61.92 63.80 64.35 64.94 64.97 64.15 62.64 62.31 61.42 61.42 62.33 63.38 64.12 63.99 64.13 63.54 62.64 62.29 60.48 59.53 59.25 60.04 60.28 60.35 59.30 59.86
32.62 33.42 35.32 36.70 40.39 40.95 41.04 40.42 43.09 42.31 41.47 41.95 43.79 45.24 46.52 48.04 49.82 52.21 53.18 54.51 54.83 56.30 57.37 61.77 63.68 63.82 64.40 64.16 62.85 62.39 61.78 60.95 60.85 61.22 62.15 62.74 63.68 63.43 62.94 62.74 61.10 59.77 58.67 58.78 59.31 59.52 59.92 59.72 59.49
37.33 36.00 35.43 36.94 40.24 39.00 39.24 39.05 40.32 41.46 40.80 41.75 43.58 45.39 46.64 48.56 51.09 51.96 52.93 53.74 54.94 59.60 60.65 62.09 62.77 63.12 62.92 61.42 60.40 60.15 59.30 59.20 60.35 61.42 62.18 63.01 62.89 62.82 62.83 62.48 59.86 59.70 57.87 59.37 60.72 59.17 58.56 58.54 59.84
36.08 34.95 34.88 36.79 38.79 37.49 37.05 37.48 40.31 41.12 42.25 43.59 44.64 45.67 47.05 48.77 49.60 52.07 53.91 53.64 56.23 59.32 61.28 61.97 62.47 61.71 63.07 62.83 62.11 62.20 60.83 61.20 60.76 62.34 62.76 62.69 62.68 61.59 62.02 61.60 59.35 58.55 57.77 57.55 57.94 58.74 58.06 58.24 58.95
34.28 33.42 34.03 33.79 36.39 38.06 36.49 37.01 39.13 41.42 41.90 43.99 45.62 46.99 46.87 46.98 51.53 53.14 53.96 55.10 56.52 58.66 60.58 61.23 62.15 61.00 63.05 63.48 62.66 62.70 61.65 61.47 61.17 61.48 61.37 61.58 61.16 61.60 60.43 60.12 59.35 57.91 56.37 55.78 58.43 58.96 58.56 56.21 57.97
32.09 36.41 35.41 34.07 34.07 31.43 38.39 30.62 36.85 40.11 41.12 42.60 44.16 44.94 48.19 51.99 52.86 53.03 53.21 54.04 56.77 57.80 61.25 61.84 61.47 61.09 61.68 62.74 62.04 61.18 59.71 58.35 60.16 61.30 60.99 61.33 60.44 59.69 59.58 59.43 57.91 56.56 56.22 55.61 58.28 57.83 57.89 57.31 56.45
35.01 39.18 36.44 36.65 34.90 33.59 34.35 31.66 35.00 38.58 38.10 40.74 43.71 47.97 50.91 52.25 52.00 51.83 52.90 53.99 57.02 58.58 60.21 61.57 61.16 60.26 59.87 60.72 61.42 61.46 59.50 59.80 62.46 62.13 60.64 61.67 61.27 59.34 59.15 58.15 57.10 55.27 55.39 57.12 57.04 58.47 59.03 59.61 58.59
41.28 38.26 37.13 35.69 34.54 27.65 32.89 32.75 33.11 36.12 38.66 40.51 46.68 49.78 50.94 51.49 52.24 52.41 53.76 54.72 55.90 59.15 59.61 60.12 60.10 58.90 58.60 59.64 60.39 60.64 59.60 59.20 60.35 60.97 60.07 61.22 60.96 60.02 59.41 57.84 56.86 55.37 55.12 55.63 56.53 57.29 58.49 58.85 59.42
38.39 34.52 27.07 24.98 25.49 25.67 33.38 31.44 34.30 39.01 42.11 45.62 46.42 48.16 49.94 50.53 50.45 51.08 52.07 53.05 54.32 57.23 56.89 58.09 58.55 57.68 58.41 58.81 59.51 59.71 60.26 61.31 60.92 60.54 60.95 59.66 60.58 60.81 59.46 59.08 57.30 56.55 56.35 55.79 56.24 57.31 57.88 58.48 58.48
35.42 34.71 28.36 22.08 23.76 26.90 32.47 29.15 34.71 42.81 45.68 46.32 46.90 47.94 48.56 49.41 50.02 50.71 52.05 52.98 53.84 54.92 57.65 56.94 57.11 57.30 57.79 58.77 59.30 60.71 61.51 61.03 61.31 61.22 61.38 60.81 60.28 60.52 61.28 60.23 59.68 57.86 56.78 55.41 56.51 57.60 57.47 58.41 58.92
33.53 30.62 37.17 30.57 30.12 27.86 30.87 33.28 39.55 42.63 42.87 43.45 44.42 46.70 47.37 48.59 49.54 50.72 52.43 53.29 54.88 54.93 55.89 56.44 56.85 57.52 57.98 58.27 59.63 60.09 59.97 58.95 58.69 59.06 60.01 61.36 61.23 61.65 61.27 60.42 60.13 59.80 57.27 57.83 57.47 58.19 57.87 58.69 58.48
36.64 38.36 30.05 31.36 23.43 21.92 27.44 29.55 31.70 35.41 37.40 39.62 41.34 44.49 47.85 49.71 49.92 51.04 52.78 53.95 54.70 57.03 57.01 57.98 57.17 57.18 57.76 58.63 59.97 60.21 60.32 59.97 59.36 59.53 59.02 59.67 59.98 60.26 60.66 61.00 60.53 59.34 58.56 57.80 56.87 56.85 58.16 57.06 57.21
33.37 32.46 33.07 33.38 31.07 25.62 24.24 28.94 37.99 36.90 38.52 37.92 40.16 42.80 47.10 49.32 49.73 50.07 51.76 53.62 53.54 55.86 58.20 57.25 56.80 57.17 57.22 58.85 59.89 59.93 58.92 59.04 58.97 58.62 59.19 60.23 60.53 60.94 60.52 60.65 60.45 59.61 58.59 57.80 57.03 56.71 56.55 55.35 55.31
36.13 33.60 33.38 28.79 26.84 29.96 29.10 29.58 41.16 38.76 38.61 38.96 39.42 40.89 46.03 49.65 50.06 49.94 51.47 52.50 52.55 51.01 56.09 56.67 56.72 56.57 57.10 58.81 59.10 59.20 58.88 58.27 57.83 58.04 58.94 60.00 59.22 60.07 59.98 59.68 59.53 59.43 59.55 58.26 57.13 55.96 55.66 55.11 54.72
MSLP
1011.64 1011.84 1011.72 1011.61 1012.28 1011.75 1010.46 1009.86 1009.65 1009.07 1008.73 1008.53 1008.33 1008.34 1008.15 1008.06 1008.27 1008.07 1007.60 1007.64 1008.05 1008.30 1008.88 1009.51 1009.99 1010.33 1010.54 1010.70 1010.89 1011.24 1011.49 1011.81 1012.18 1012.58 1012.91 1013.22 1013.49 1013.86 1014.20 1014.35 1014.61 1014.90 1015.30 1015.64 1015.89 1015.94 1016.33 1016.85 1017.28
1011.55 1011.56 1011.73 1011.98 1011.83 1011.05 1010.01 1009.59 1008.97 1008.58 1008.33 1008.25 1008.10 1008.06 1008.02 1007.60 1007.70 1007.41 1007.47 1007.70 1007.86 1008.18 1008.89 1009.28 1009.91 1010.39 1010.67 1010.92 1010.90 1011.24 1011.63 1011.88 1012.30 1012.64 1013.01 1013.30 1013.72 1014.13 1014.43 1014.55 1014.79 1015.03 1015.42 1015.94 1016.27 1016.58 1016.78 1017.15 1017.52
1011.43 1011.35 1011.49 1011.88 1011.73 1010.57 1009.52 1009.04 1008.58 1008.44 1008.09 1007.85 1007.64 1007.56 1007.36 1007.05 1007.18 1007.03 1006.89 1007.51 1008.12 1008.39 1008.56 1009.15 1009.74 1010.39 1010.79 1011.14 1011.10 1011.10 1011.59 1011.92 1012.22 1012.58 1012.96 1013.34 1013.71 1014.12 1014.56 1014.89 1015.00 1015.15 1015.55 1015.86 1016.30 1016.86 1017.24 1017.66 1017.96
1011.41 1011.60 1012.55 1011.87 1011.10 1010.53 1009.65 1008.81 1008.74 1008.51 1008.10 1007.79 1007.43 1007.31 1007.31 1006.74 1006.62 1006.76 1006.81 1007.40 1007.93 1008.50 1009.00 1009.39 1009.63 1010.26 1010.79 1011.18 1011.44 1011.26 1011.70 1011.91 1012.05 1012.34 1012.92 1013.64 1014.17 1013.89 1014.37 1015.14 1015.46 1015.81 1016.13 1016.34 1016.68 1017.04 1017.75 1018.32 1018.33
1011.75 1011.81 1011.53 1011.29 1010.73 1010.12 1009.49 1009.03 1008.72 1008.25 1007.95 1007.72 1007.53 1007.14 1006.89 1006.54 1006.62 1006.87 1007.19 1007.44 1007.82 1008.46 1008.89 1009.59 1009.64 1009.95 1010.64 1011.12 1011.48 1011.57 1011.67 1012.09 1012.22 1012.40 1012.66 1013.18 1013.69 1015.07 1015.09 1015.83 1015.89 1016.36 1016.65 1016.84 1017.14 1017.56 1017.87 1018.71 1018.86
1011.71 1011.95 1011.38 1010.57 1010.04 1009.77 1009.18 1008.71 1008.49 1007.96 1007.73 1007.58 1007.60 1007.33 1006.78 1006.86 1007.04 1006.92 1007.08 1007.55 1007.76 1008.24 1008.95 1009.50 1009.75 1009.89 1010.22 1010.84 1011.32 1011.92 1011.77 1012.12 1012.27 1012.50 1012.74 1013.25 1013.59 1014.89 1014.78 1016.05 1016.01 1016.36 1016.52 1016.86 1017.55 1017.82 1018.23 1018.90 1019.22
1011.25 1011.45 1010.90 1010.40 1009.77 1009.64 1008.81 1008.31 1008.22 1007.83 1007.71 1007.47 1007.41 1007.06 1006.74 1006.77 1007.04 1007.48 1007.65 1007.77 1008.21 1008.65 1009.08 1009.48 1009.89 1009.94 1010.17 1010.35 1011.06 1011.77 1012.24 1012.19 1012.34 1012.56 1012.85 1013.31 1013.49 1014.31 1013.86 1015.08 1015.48 1016.42 1016.75 1016.67 1017.76 1018.12 1018.52 1019.17 1019.41
1011.26 1011.25 1010.80 1010.34 1009.54 1008.85 1008.48 1008.12 1007.87 1007.70 1007.57 1007.53 1007.38 1007.08 1006.81 1006.50 1007.24 1007.72 1008.13 1008.18 1008.40 1008.63 1008.84 1009.22 1009.60 1010.02 1010.12 1010.27 1010.60 1011.36 1012.18 1012.51 1012.69 1012.70 1012.97 1013.41 1013.92 1014.41 1014.29 1014.91 1015.35 1015.55 1015.28 1017.04 1017.83 1018.40 1018.72 1019.44 1019.64
1011.37 1011.02 1010.10 1009.72 1009.40 1008.54 1008.46 1008.30 1008.09 1007.83 1007.63 1007.61 1007.26 1007.04 1006.90 1007.10 1007.53 1007.77 1007.95 1008.20 1008.23 1008.45 1008.77 1009.22 1009.51 1009.81 1010.08 1010.22 1010.46 1010.92 1011.65 1012.30 1012.84 1013.04 1013.12 1013.52 1013.86 1014.22 1014.69 1014.92 1015.42 1015.45 1015.19 1016.60 1017.74 1018.45 1018.96 1019.63 1020.03
1010.99 1010.15 1009.49 1009.02 1008.65 1008.53 1008.40 1008.34 1008.19 1008.13 1007.72 1007.26 1007.27 1007.18 1007.01 1007.17 1007.44 1007.39 1007.34 1007.37 1007.48 1007.81 1008.16 1008.81 1009.34 1009.73 1010.00 1010.22 1010.22 1010.64 1011.07 1011.74 1012.38 1013.02 1013.24 1013.40 1013.75 1014.18 1014.44 1014.96 1015.52 1015.39 1015.58 1016.38 1017.44 1018.46 1019.21 1019.68 1019.97
1010.32 1009.18 1009.36 1008.76 1008.40 1008.34 1008.22 1008.19 1007.98 1007.72 1007.20 1007.00 1006.66 1006.41 1006.89 1006.89 1007.00 1007.01 1006.79 1006.70 1006.45 1007.08 1007.76 1008.36 1008.95 1009.37 1009.78 1010.01 1010.12 1010.36 1010.71 1011.25 1011.99 1012.62 1013.07 1013.40 1013.95 1014.41 1014.71 1015.15 1015.64 1015.59 1015.77 1016.23 1017.03 1018.31 1019.05 1019.28 1019.68
1010.01 1009.24 1008.95 1008.44 1008.20 1008.14 1007.77 1007.71 1007.48 1007.33 1006.92 1006.53 1006.54 1006.48 1006.57 1006.43 1006.36 1006.35 1006.34 1006.31 1006.88 1007.27 1007.63 1008.18 1008.75 1009.01 1009.28 1009.51 1010.02 1010.09 1010.59 1010.94 1011.56 1012.36 1012.92 1013.42 1013.76 1014.06 1014.47 1014.90 1015.25 1015.43 1015.67 1016.46 1016.96 1017.79 1018.82 1019.44 1019.73
1009.52 1009.04 1008.70 1008.33 1007.99 1007.82 1007.71 1007.29 1007.14 1006.67 1006.68 1006.37 1006.26 1006.42 1006.19 1006.05 1005.89 1005.94 1006.08 1006.25 1006.56 1006.66 1006.99 1007.44 1008.09 1008.54 1008.99 1009.38 1009.76 1010.16 1010.57 1010.75 1011.02 1011.81 1012.68 1013.13 1013.46 1013.91 1014.02 1014.68 1014.93 1015.14 1015.58 1016.22 1016.89 1017.72 1018.73 1019.43 1019.88
1008.64 1008.53 1008.34 1008.15 1007.95 1007.68 1007.45 1006.75 1006.89 1006.00 1006.07 1006.21 1006.18 1005.92 1006.02 1005.91 1005.65 1005.62 1005.64 1005.47 1005.62 1005.64 1005.92 1006.59 1007.11 1007.67 1008.27 1008.77 1009.33 1009.87 1010.25 1010.74 1010.98 1011.22 1011.85 1012.42 1012.92 1013.24 1013.75 1014.24 1014.77 1015.05 1015.50 1016.12 1016.85 1017.27 1018.61 1019.18 1019.74
1008.47 1008.28 1007.96 1007.85 1007.64 1007.24 1006.91 1006.34 1006.16 1005.44 1005.80 1006.11 1006.04 1005.91 1005.71 1005.59 1005.55 1005.28 1004.97 1004.78 1004.55 1004.59 1004.98 1005.33 1005.90 1006.68 1007.31 1007.94 1008.68 1009.35 1009.86 1010.18 1010.63 1010.70 1011.30 1011.74 1012.24 1012.72 1012.99 1013.66 1014.22 1014.89 1015.28 1016.29 1017.00 1017.47 1018.43 1019.09 1019.62
1008.46 1007.98 1007.52 1006.87 1006.80 1006.70 1006.71 1005.08 1005.53 1005.45 1005.65 1005.80 1005.67 1005.60 1005.52 1005.19 1005.00 1004.73 1004.47 1004.30 1004.05 1004.08 1004.30 1004.53 1005.00 1005.65 1006.33 1007.06 1007.93 1008.75 1009.41 1009.64 1010.24 1010.38 1010.83 1011.17 1011.54 1012.16 1012.81 1013.40 1013.90 1014.36 1015.12 1015.87 1016.80 1017.11 1018.22 1018.92 1019.57
1008.46 1007.49 1007.26 1007.03 1006.68 1006.46 1006.57 1005.58 1005.54 1005.61 1005.74 1005.58 1005.24 1005.05 1004.94 1004.78 1004.39 1004.12 1003.93 1003.72 1003.55 1003.44 1003.65 1003.77 1004.23 1004.75 1005.41 1006.45 1007.35 1008.22 1008.82 1009.30 1009.85 1010.11 1010.36 1010.69 1011.09 1011.52 1012.11 1012.74 1013.17 1013.96 1014.83 1015.52 1016.26 1016.90 1017.57 1018.59 1019.36
1007.82 1007.52 1007.37 1006.79 1006.88 1006.50 1006.27 1006.03 1005.92 1005.64 1005.79 1005.70 1005.30 1004.92 1004.71 1004.33 1003.60 1003.15 1003.13 1002.96 1002.84 1002.81 1002.85 1003.04 1003.61 1004.12 1004.87 1005.95 1006.92 1007.84 1008.53 1009.01 1009.39 1009.80 1009.86 1010.33 1010.64 1011.08 1011.45 1012.00 1012.22 1013.34 1014.52 1015.23 1015.95 1016.58 1017.47 1018.16 1019.05
1007.71 1007.47 1007.27 1007.18 1006.85 1006.76 1005.93 1005.36 1005.69 1005.59 1005.48 1005.15 1004.69 1004.38 1004.29 1003.80 1003.39 1003.44 1003.13 1002.91 1002.58 1002.43 1002.48 1002.72 1003.14 1003.69 1004.40 1005.18 1006.04 1007.09 1007.81 1008.63 1008.96 1009.25 1009.43 1009.81 1010.12 1010.46 1010.62 1010.30 1011.70 1012.68 1013.78 1014.49 1015.31 1016.31 1017.09 1018.24 1018.92
1007.59 1007.40 1007.03 1007.49 1007.09 1006.93 1006.02 1004.73 1005.22 1004.89 1004.56 1004.40 1004.20 1004.09 1003.94 1003.87 1003.56 1003.03 1002.86 1002.42 1002.09 1002.15 1002.48 1002.90 1003.01 1003.51 1003.84 1004.34 1005.24 1006.04 1007.17 1007.89 1008.30 1008.54 1008.84 1009.04 1009.36 1009.70 1009.76 1010.01 1010.41 1011.95 1013.29 1014.26 1014.93 1015.44 1016.52 1017.59 1018.58
1007.27 1007.02 1007.22 1007.28 1007.08 1006.76 1006.25 1004.41 1004.26 1004.03 1004.20 1004.09 1003.98 1003.93 1004.05 1003.90 1003.54 1003.15 1002.67 1002.36 1002.08 1002.01 1002.39 1002.59 1002.80 1003.42 1003.60 1004.19 1005.00 1005.84 1006.82 1007.44 1007.80 1007.96 1008.33 1008.53 1008.66 1008.80 1009.17 1009.47 1010.37 1011.47 1012.52 1013.71 1014.25 1015.01 1015.62 1016.57 1018.11
1006.79 1006.62 1006.85 1007.09 1007.32 1006.64 1006.29 1004.56 1004.34 1003.96 1004.00 1003.63 1003.53 1003.88 1003.92 1003.76 1003.51 1003.39 1002.92 1002.23 1002.03 1001.85 1002.00 1002.20 1002.58 1003.05 1003.33 1003.75 1004.36 1005.22 1005.72 1006.60 1006.93 1007.32 1007.94 1008.24 1008.51 1008.54 1008.75 1009.54 1009.95 1011.14 1012.06 1013.11 1013.66 1014.65 1015.17 1015.90 1016.80
1005.83 1006.07 1006.25 1006.65 1006.82 1006.82 1006.27 1005.82 1004.30 1004.25 1003.78 1003.52 1003.43 1003.69 1003.86 1003.80 1003.89 1003.61 1003.19 1002.75 1001.98 1001.68 1001.83 1002.08 1002.48 1002.80 1003.18 1003.29 1003.66 1004.64 1005.46 1006.01 1006.48 1007.07 1007.72 1008.09 1008.52 1008.80 1009.12 1009.50 1010.26 1010.94 1011.81 1012.49 1013.30 1014.39 1014.98 1015.37 1015.94
1005.71 1006.17 1006.49 1006.81 1006.87 1006.53 1005.77 1005.44 1004.30 1004.17 1003.74 1003.61 1003.64 1003.76 1003.74 1003.65 1003.68 1003.64 1003.33 1002.86 1002.17 1002.11 1002.11 1002.25 1002.38 1002.79 1003.42 1003.65 1003.58 1003.92 1004.90 1005.48 1006.16 1006.77 1007.23 1007.63 1008.19 1008.73 1009.23 1009.70 1010.14 1010.99 1011.63 1012.38 1013.25 1013.93 1014.57 1015.06 1015.62
1005.49 1005.70 1006.29 1006.82 1006.71 1005.49 1005.06 1005.37 1004.47 1004.08 1004.03 1004.02 1003.99 1003.91 1003.94 1003.91 1003.82 1003.61 1003.32 1002.83 1002.36 1002.12 1002.41 1002.38 1002.51 1002.73 1003.15 1003.43 1003.90 1003.94 1004.51 1004.91 1005.57 1006.26 1006.82 1007.17 1007.68 1008.18 1008.82 1009.42 1010.03 1010.68 1011.27 1012.38 1013.07 1013.72 1014.25 1014.76 1015.13
1005.00 1005.03 1004.79 1004.89 1005.28 1005.43 1005.61 1004.75 1004.57 1004.80 1004.69 1004.76 1004.68 1004.48 1004.18 1003.91 1003.86 1003.73 1003.43 1003.12 1002.69 1002.34 1002.11 1002.47 1002.53 1002.65 1003.00 1003.18 1003.80 1004.40 1004.40 1004.58 1005.23 1005.83 1006.41 1006.83 1007.18 1007.61 1008.19 1008.91 1009.65 1010.45 1011.13 1011.86 1012.64 1013.38 1013.91 1014.41 1014.93
1005.21 1005.23 1004.78 1005.00 1005.62 1005.60 1005.01 1004.88 1004.91 1005.03 1004.87 1004.65 1004.40 1004.34 1004.35 1004.36 1004.14 1003.98 1003.57 1003.25 1002.63 1002.01 1001.69 1002.15 1002.32 1002.46 1002.62 1002.99 1003.48 1004.24 1004.71 1004.73 1005.18 1005.86 1006.30 1006.60 1006.96 1007.22 1007.73 1008.43 1009.06 1009.83 1010.47 1011.18 1011.95 1012.67 1013.33 1013.98 1014.54
1004.86 1004.87 1005.29 1005.29 1005.38 1005.26 1004.86 1004.72 1004.58 1004.97 1004.82 1004.77 1004.49 1004.43 1004.35 1004.33 1004.33 1004.13 1003.71 1003.21 1002.75 1001.64 1001.05 1001.42 1001.84 1002.06 1002.22 1002.46 1002.92 1003.67 1004.34 1004.59 1005.17 1005.65 1006.11 1006.50 1006.92 1007.15 1007.48 1007.91 1008.28 1009.06 1009.87 1010.32 1011.29 1012.03 1012.65 1013.29 1014.09
1005.90 1005.54 1005.61 1005.56 1005.93 1005.20 1004.86 1004.62 1005.02 1005.01 1004.98 1004.96 1004.72 1004.45 1004.39 1004.35 1004.31 1004.10 1003.54 1003.00 1002.74 1002.04 1001.42 1001.45 1001.62 1001.75 1001.86 1002.09 1002.44 1003.19 1004.06 1004.47 1005.10 1005.55 1005.91 1006.21 1006.52 1006.84 1007.23 1007.46 1007.63 1008.02 1008.32 1009.63 1010.41 1011.20 1011.98 1012.63 1013.39
1007.08 1007.10 1006.98 1006.39 1006.65 1006.30 1005.75 1004.78 1004.53 1004.83 1004.86 1004.79 1004.53 1004.46 1004.33 1004.17 1004.07 1003.95 1003.39 1002.39 1002.65 1002.64 1001.96 1001.47 1001.41 1001.44 1001.49 1001.70 1002.07 1002.62 1003.55 1004.09 1004.76 1005.36 1005.72 1006.15 1006.46 1006.60 1006.73 1007.01 1007.24 1007.09 1007.38 1008.27 1008.88 1010.02 1011.05 1011.95 1012.80
Wind_Speed
5 3 2 3 2 1 2 3 2 2 2 2 4 4 7 2 6 2 2 11 5 11 12 13 12 12 13 12 13 14 16 16 18 18 18 19 18 18 16 17 17 18 19 19 20 20 21 20 17
5 3 3 3 2 3 3 2 4 4 2 4 4 3 4 2 3 2 4 12 9 13 12 13 12 12 14 12 15 16 17 18 18 19 19 19 18 17 16 16 17 18 18 18 18 19 20 20 18
4 3 2 3 3 5 3 5 5 3 9 3 3 3 2 2 2 3 5 15 10 11 13 13 13 13 12 12 14 18 17 18 19 19 19 19 19 19 17 15 14 16 17 18 17 18 20 18 18
2 2 4 3 9 5 4 3 3 5 2 4 2 4 2 4 4 4 6 14 12 11 11 14 13 14 14 12 13 18 18 20 20 20 20 17 17 19 17 16 12 13 13 15 16 18 19 15 18
3 1 2 3 5 4 6 5 4 5 4 2 3 3 4 3 2 3 7 12 14 11 11 13 14 15 15 14 14 15 19 19 18 20 23 20 18 8 14 7 11 10 9 11 14 15 19 15 16
2 1 3 8 8 4 6 7 3 2 3 4 4 1 4 5 4 3 9 10 10 12 11 11 18 15 17 15 13 12 15 19 18 20 18 20 24 20 20 14 14 11 13 12 16 18 18 15 15
3 3 4 5 4 4 6 5 4 3 2 3 3 3 1 2 4 1 4 8 8 9 11 10 13 15 13 14 12 11 11 14 14 13 16 15 23 23 23 22 20 13 10 15 16 17 17 15 15
4 3 4 4 8 8 4 5 6 2 2 5 2 1 4 7 3 4 3 6 7 9 10 11 12 13 13 14 13 13 11 12 12 11 15 14 15 17 18 19 19 21 21 15 18 16 17 14 15
4 5 8 9 7 4 3 3 1 0 2 3 3 2 7 5 1 3 5 6 7 8 10 11 12 11 13 13 11 14 15 12 10 11 14 13 13 15 17 16 16 18 20 21 19 17 16 14 13
5 6 12 7 8 6 3 2 5 4 6 6 6 6 8 3 4 8 11 12 14 14 14 12 11 10 10 8 11 14 13 12 12 12 14 10 12 12 14 14 16 19 22 21 21 17 14 15 11
6 11 6 6 12 6 4 6 4 9 12 8 13 16 4 7 7 10 13 14 18 12 11 14 11 11 11 9 8 6 6 7 8 15 13 11 8 8 8 7 8 9 17 11 16 14 11 13 10
7 8 10 6 6 6 9 6 9 10 10 14 13 12 7 10 10 11 13 14 10 8 10 12 14 12 12 7 8 7 7 6 7 8 11 8 6 9 9 7 9 9 10 12 11 11 12 13 12
7 7 8 12 10 9 8 14 14 11 13 13 12 9 13 10 10 10 11 11 10 13 12 14 14 14 12 12 7 6 7 6 8 9 10 8 9 9 9 7 8 9 9 13 11 12 11 11 11
3 7 14 10 12 12 15 17 7 7 8 11 9 12 7 7 9 7 7 11 12 15 15 14 18 16 14 13 12 8 6 7 6 7 11 14 10 10 9 8 8 9 9 11 11 12 9 10 10
5 8 8 8 7 9 7 11 11 17 6 7 5 6 9 10 9 12 12 11 14 13 14 18 19 19 18 16 13 9 9 10 9 9 10 16 14 12 11 10 9 9 10 11 9 13 9 10 10
3 3 6 4 9 7 10 14 8 4 5 6 9 8 9 12 11 13 14 14 17 14 13 15 15 19 19 16 12 9 9 8 8 8 9 13 16 15 12 10 10 10 10 11 11 13 11 10 10
4 11 10 3 7 2 11 5 7 2 6 12 12 12 12 12 13 13 14 15 17 14 14 15 18 20 19 16 11 11 11 7 7 7 8 11 14 15 12 11 11 12 10 11 12 12 13 11 10
11 9 6 8 3 2 11 12 8 10 9 11 12 14 12 12 15 15 16 14 14 12 13 14 15 18 18 12 10 8 7 6 7 7 9 11 9 14 15 12 14 13 10 11 12 15 12 12 11
8 7 8 3 3 6 16 19 14 14 10 13 13 12 10 10 12 13 15 13 13 11 10 13 16 16 14 12 10 7 8 7 7 7 13 14 12 13 13 10 15 14 13 15 16 14 16 11 11
15 16 16 8 11 7 13 18 11 14 11 11 10 9 10 8 12 13 15 14 10 11 8 12 15 16 16 12 10 6 7 5 8 8 10 11 13 14 11 15 17 17 13 14 17 16 13 11 12
16 18 14 13 2 6 8 14 6 3 4 3 7 9 7 6 11 14 17 17 13 10 10 12 13 15 15 14 11 7 6 2 5 7 6 7 7 12 8 13 15 16 14 14 16 16 17 12 12
17 13 16 12 6 6 3 7 3 3 5 4 5 3 4 9 12 14 17 19 18 12 10 11 13 16 15 17 13 14 8 6 5 5 5 6 7 8 13 12 14 14 12 14 15 13 14 14 14
13 8 15 12 11 2 6 6 4 4 2 1 3 5 5 6 10 14 16 17 20 9 8 11 14 15 14 14 15 12 9 6 6 6 9 9 10 9 11 12 13 12 10 13 16 16 15 12 12
7 5 3 3 4 7 11 10 5 5 6 2 3 6 7 9 11 12 13 15 17 8 5 9 12 14 14 14 16 16 12 10 8 9 7 9 8 8 11 11 9 11 10 13 13 14 16 13 13
7 7 4 5 6 6 8 10 1 6 4 4 5 8 10 11 13 15 15 16 16 12 6 8 10 11 13 14 14 15 15 15 14 11 8 8 9 7 11 12 12 10 10 12 12 13 14 14 14
14 12 5 8 7 4 2 6 5 8 8 5 4 6 8 13 14 15 15 15 16 14 7 9 10 11 13 14 13 12 13 8 8 10 7 7 5 9 13 13 13 13 13 12 13 11 11 13 12
6 9 10 5 2 3 5 3 7 8 10 13 14 11 12 13 14 16 16 15 18 15 12 9 11 11 11 12 12 11 10 9 7 8 6 5 5 7 8 14 13 15 15 15 15 12 13 13 12
1 4 5 2 8 8 6 4 5 7 9 11 14 14 13 13 13 13 14 17 18 18 11 10 11 11 12 15 13 11 12 10 8 8 9 8 6 6 9 12 12 15 15 16 15 13 15 15 11
4 1 3 4 1 5 4 3 8 6 6 10 11 12 11 12 12 13 14 15 20 21 9 7 8 11 12 14 14 13 10 10 7 6 5 8 8 10 12 11 10 15 19 19 17 16 15 16 15
3 1 3 4 6 1 1 3 11 4 6 9 12 13 11 7 9 11 11 13 18 17 14 9 9 9 11 14 14 13 11 9 7 6 6 7 7 8 9 10 12 16 14 19 21 19 17 18 16
Wind_Direction
144 108 108 65 213 285 249 236 287 236 237 188 133 159 194 152 172 202 336 182 141 144 155 164 168 175 173 161 146 151 154 145 145 146 145 144 145 143 141 140 145 145 143 136 136 133 129 127 120
147 129 67 99 189 219 204 234 212 190 279 277 196 174 193 232 222 241 165 187 160 149 156 166 163 175 177 167 154 157 163 151 146 146 147 148 145 142 142 138 138 138 145 142 140 132 129 128 122
122 46 127 110 148 214 218 201 175 284 295 221 157 236 180 217 213 210 214 164 156 159 158 166 163 167 179 175 163 160 161 156 147 150 153 152 150 147 149 142 140 144 145 149 148 137 130 125 122
124 97 90 204 220 235 233 192 185 300 215 226 148 263 247 232 177 218 164 168 166 164 166 166 156 166 180 180 171 163 164 166 163 156 154 152 156 156 154 150 127 136 148 148 143 137 123 124 127
51 63 172 219 230 251 237 261 253 301 290 250 189 226 236 221 226 241 178 173 180 170 169 170 166 168 176 186 175 167 165 169 169 161 160 156 129 189 127 148 121 141 146 145 138 133 120 132 131
99 92 204 234 234 223 256 232 242 255 320 314 165 218 255 23 326 212 174 180 171 166 166 179 180 176 177 183 178 174 166 173 173 172 163 160 155 151 145 186 156 169 159 142 145 131 132 139 135
174 161 234 261 253 249 233 181 192 186 293 34 305 208 289 24 351 345 182 165 153 159 169 178 186 186 181 177 172 171 173 171 180 178 167 179 154 173 159 170 157 172 148 137 147 136 134 143 134
136 198 196 226 259 271 228 176 154 133 67 318 236 65 331 341 44 113 142 161 167 176 183 179 184 193 193 188 169 166 175 180 180 167 158 153 157 174 154 156 163 174 145 150 139 140 138 142 136
146 210 219 222 215 229 179 177 254 126 220 343 264 246 302 335 71 185 176 190 187 196 196 188 190 195 197 193 182 168 175 182 177 170 161 159 176 170 164 166 173 171 142 144 137 140 140 141 136
207 222 211 210 218 236 208 256 305 294 314 284 268 265 261 284 244 234 216 211 205 203 199 192 189 193 196 201 183 189 183 189 191 191 180 174 171 173 173 174 185 156 142 137 138 139 142 157 158
196 240 206 222 236 245 244 249 224 277 282 259 298 300 255 278 253 245 240 231 218 213 199 194 187 190 196 195 194 186 183 178 187 193 187 179 171 175 180 184 187 157 141 146 145 145 168 169 166
239 232 225 220 221 222 244 262 266 235 253 270 263 280 280 280 273 251 247 245 236 225 215 203 199 195 195 191 199 186 184 167 171 182 187 185 178 178 178 181 177 169 165 155 160 157 166 171 166
243 251 225 234 236 228 250 258 256 249 247 254 267 266 275 287 274 262 253 259 245 239 222 214 198 201 198 197 190 190 185 179 175 170 184 190 192 190 167 183 172 170 162 168 164 158 162 166 162
219 246 256 255 243 254 253 256 244 240 235 242 259 273 275 257 269 283 253 258 240 243 233 212 206 200 192 196 190 189 176 176 175 169 188 190 188 187 188 171 171 169 164 173 168 154 152 165 166
253 267 261 231 224 232 228 248 239 250 243 238 241 265 291 279 272 250 253 254 262 250 238 215 206 196 194 193 189 185 191 185 201 194 190 191 193 189 188 178 166 176 160 156 158 152 147 161 170
246 218 256 208 214 238 194 249 263 119 98 325 311 284 273 277 272 269 259 261 263 260 243 223 205 196 193 190 182 181 189 185 196 203 198 197 193 192 189 185 179 161 153 157 162 160 159 165 171
236 253 235 279 208 155 204 252 224 165 356 326 313 303 293 288 282 268 263 258 259 257 257 229 202 195 189 187 180 180 185 178 190 200 197 202 199 190 189 193 170 156 158 163 167 164 165 165 172
222 234 242 227 186 214 250 252 275 306 317 279 277 280 279 283 289 303 294 278 269 266 258 221 199 192 183 172 168 174 182 180 192 197 197 204 199 200 201 190 166 155 155 165 169 163 164 164 164
237 238 233 191 207 302 271 269 272 271 276 268 264 264 274 287 296 297 288 288 286 275 245 207 194 188 172 172 162 169 185 195 199 197 206 211 216 217 210 191 163 160 162 171 167 156 155 155 155
232 245 247 263 251 235 272 280 272 257 254 245 255 276 274 305 310 315 330 327 305 278 243 216 199 186 184 173 169 162 173 191 208 199 209 213 218 217 217 188 159 166 164 169 167 164 158 152 167
232 233 238 241 281 251 279 282 247 220 208 248 238 254 312 308 336 333 337 337 326 270 233 212 200 189 182 172 161 146 139 135 191 194 198 207 200 204 186 174 165 159 160 171 170 165 169 157 179
245 217 224 201 202 250 248 294 236 180 156 233 285 355 4 4 355 353 337 336 332 289 228 209 193 184 178 170 168 174 169 176 198 165 163 176 155 155 156 156 150 158 161 168 171 169 174 158 169
244 194 207 196 207 236 232 260 253 203 313 195 346 9 15 13 3 347 347 337 333 316 220 201 192 183 175 172 171 175 172 175 171 163 163 174 160 155 147 151 156 153 161 166 169 173 180 179 166
180 170 124 117 158 237 217 215 175 217 184 314 358 26 8 355 346 345 343 343 352 337 227 201 190 188 181 183 178 176 174 172 163 182 173 180 165 162 158 148 151 154 158 163 174 177 177 178 180
198 159 170 183 189 244 201 200 231 226 74 79 18 2 9 4 353 347 341 345 349 347 282 228 197 193 184 183 184 178 180 179 183 178 185 169 181 179 172 163 161 162 163 168 175 178 181 181 178
194 200 191 221 213 203 183 215 113 84 81 66 29 359 357 359 1 351 339 335 340 339 289 242 221 201 194 185 183 191 187 177 181 181 179 193 181 183 179 179 173 171 170 171 176 182 184 184 180
172 202 225 246 88 194 198 194 105 70 48 23 11 356 353 349 352 348 340 341 333 327 305 222 225 210 188 181 174 190 190 181 173 164 175 186 186 188 176 185 182 178 176 178 181 184 182 183 175
207 138 155 199 192 218 192 212 133 61 47 26 9 354 342 342 347 348 348 347 343 339 309 216 211 206 184 176 176 184 191 186 180 179 189 200 196 193 190 200 188 189 185 180 181 186 185 177 173
320 7 41 104 314 242 237 179 167 135 60 8 349 342 343 336 337 337 342 1 354 353 314 218 203 203 179 174 176 175 178 172 161 167 193 220 225 214 207 214 212 191 186 188 181 182 179 179 164
81 9 2 261 184 120 36 229 192 159 348 339 332 331 329 320 331 328 329 6 356 349 312 223 198 196 179 179 179 172 172 164 160 176 186 201 208 222 221 221 220 211 197 188 180 178 178 180 176